GSAT0222 (GALILEO 26)

Last updated on Sat Jun 14 2025 00:02:33 GMT+0000 (Coordinated Universal Time)

1 43565U 18060B 25161.97591414 -.00000073 00000+0 00000+0 0 9992 2 43565 57.2745 351.8029 0001761 243.6742 116.3323 1.70475744 42886
UTC large
Height (km)
Speed (km/s)
/
Latitude / Longitude
Inclination (degrees)
Orbital Period (minutes)
Azimuth
Elevation
Range (km)
Doppler Factor

Next 0 passes for location: London (51.5072 / 0.1276)

Sorry there are no passes over London.